Hastings, NE

10:21 PM CDT on March 22, 2017 (GMT -0500)
Hastings Municipal

Weather History for KHSI - October, 2013

Change the Weather History Date:

Sunday, October 27, 2013

  Actual Average Record
Temperature  
Mean Temperature 55 °F 48 °F  
Max Temperature 75 °F 60 °F 88 °F (1927)
Min Temperature 35 °F 36 °F 4 °F (1997)
Degree Days  
Heating Degree Days 10 17  
Month to date heating degree days 326 323  
Since 1 July heating degree days 361 419  
Cooling Degree Days 0 0  
Month to date cooling degree days 15 11  
Year to date cooling degree days 1158 1074  
Growing Degree Days 6 (Base 50)    
Moisture  
Dew Point 30 °F    
Average Humidity 41    
Maximum Humidity 64    
Minimum Humidity 18    
Precipitation  
Precipitation 0.00 in 0.05 in 1.92 in (1897)
Month to date precipitation 4.65 1.81  
Year to date precipitation 23.97 25.03  
Snow  
Snow 0.00 in 0.10 in 3.00 in (1980)
Month to date snowfall 0.0 0.8  
Since 1 July snowfall 0.0 1.0  
Since 1 September snowfall 0.0 1.0  
Snow Depth 0.00 in    
Sea Level Pressure  
Sea Level Pressure 29.94 in    
Wind  
Wind Speed 8 mph (SSW)    
Max Wind Speed 16 mph    
Max Gust Speed 24 mph    
Visibility 10 miles    
Events      
T = Trace of Precipitation, MM = Missing Value Source: NWS Daily Summary

Daily Weather History Graph

Daily Weather History Graph

Search for Another Location

Airport or City:

Trip Planner

Search our weather history database for the weather conditions in past years. The results will help you decide how hot, cold, wet, or windy it might be!

Date:

Astronomy

Oct. 27, 2013 Rise Set
Actual Time 7:58 AM CDT 6:36 PM CDT
Civil Twilight 7:30 AM CDT 7:04 PM CDT
Nautical Twilight 6:58 AM CDT 7:36 PM CDT
Astronomical Twilight 6:26 AM CDT 8:07 PM CDT
Moon 12:55 AM CDT (10/27) 2:47 PM CDT (10/27)
Length of Visible Light 11h 33m
Length of Day
10h 37m
Last Quarter, 43% of the Moon is Illuminated
Oct 27
Last Quarter
Nov 3
New
Nov 9
First Quarter
Nov 17
Full
Nov 25
Last Quarter

Hourly Weather History & Observations

Time (CDT) Temp. Windchill Dew Point Humidity Pressure Visibility Wind Dir Wind Speed Gust Speed Precip Events Conditions
12:53 AM 36.0 °F 32.1 °F 25.0 °F 64% 30.14 in 10.0 mi South 4.6 mph - N/A   Clear
1:53 AM 37.0 °F 32.4 °F 24.1 °F 59% 30.12 in 10.0 mi South 5.8 mph - N/A   Clear
2:53 AM 37.0 °F 31.0 °F 24.1 °F 59% 30.10 in 10.0 mi SSW 8.1 mph - N/A   Clear
3:53 AM 37.9 °F 31.5 °F 24.1 °F 57% 30.07 in 10.0 mi SSW 9.2 mph - N/A   Clear
4:53 AM 37.0 °F 31.0 °F 24.1 °F 59% 30.04 in 10.0 mi SSW 8.1 mph - N/A   Clear
5:53 AM 36.0 °F 29.6 °F 25.0 °F 64% 30.02 in 10.0 mi SSW 8.1 mph - N/A   Clear
6:53 AM 36.0 °F 30.3 °F 25.0 °F 64% 30.01 in 10.0 mi South 6.9 mph - N/A   Clear
7:53 AM 37.0 °F 31.0 °F 26.1 °F 65% 29.99 in 10.0 mi SSW 8.1 mph - N/A   Clear
8:53 AM 39.0 °F 33.4 °F 28.0 °F 65% 29.98 in 10.0 mi SSW 8.1 mph - N/A   Clear
9:53 AM 46.0 °F 41.4 °F 30.9 °F 56% 29.97 in 10.0 mi SSW 9.2 mph - N/A   Clear
10:53 AM 54.0 °F - 33.1 °F 45% 29.94 in 10.0 mi SSW 15.0 mph 20.7 mph N/A   Clear
11:53 AM 61.0 °F - 34.0 °F 36% 29.91 in 10.0 mi SW 10.4 mph 19.6 mph N/A   Clear
12:53 PM 64.9 °F - 34.0 °F 32% 29.88 in 10.0 mi SW 11.5 mph 19.6 mph N/A   Clear
1:53 PM 70.0 °F - 34.0 °F 27% 29.84 in 10.0 mi SW 9.2 mph 23.0 mph N/A   Clear
2:53 PM 73.0 °F - 30.9 °F 21% 29.81 in 10.0 mi SSW 12.7 mph 23.0 mph N/A   Clear
3:53 PM 73.9 °F - 32.0 °F 21% 29.80 in 10.0 mi SW 8.1 mph 20.7 mph N/A   Clear
4:53 PM 75.0 °F - 28.9 °F 18% 29.79 in 10.0 mi WSW 10.4 mph 21.9 mph N/A   Clear
5:53 PM 72.0 °F - 33.1 °F 24% 29.80 in 10.0 mi West 5.8 mph - N/A   Clear
6:53 PM 66.0 °F - 32.0 °F 28% 29.82 in 10.0 mi SW 3.5 mph - N/A   Clear
7:53 PM 57.0 °F - 35.1 °F 44% 29.86 in 9.0 mi Calm Calm - N/A   Clear
8:53 PM 50.0 °F - 33.1 °F 52% 29.88 in 5.0 mi NE 3.5 mph - N/A   Haze
9:53 PM 48.0 °F - 35.1 °F 61% 29.90 in 10.0 mi ENE 5.8 mph - N/A   Clear
10:53 PM 50.0 °F - 34.0 °F 54% 29.92 in 10.0 mi East 4.6 mph - N/A   Clear
11:53 PM 51.1 °F - 35.1 °F 54% 29.92 in 10.0 mi NNE 9.2 mph 17.3 mph N/A   Clear